Location: Il Ritiro
(43.4167°N, 13.1333°E)
Time: 08:01:04
(UTC+00:00)

Cosmos 1825 - Pass Details

Date: 05 July 2020
Orbit: 503 x 508 km, 82.5° (Epoch: 06 August)

Event Time Altitude Azimuth Distance (km) Brightness Sun altitude
Exits shadow 21:58:00 55° 75° (ENE) 620 2.4 -21.7°
Drops below altitude 10° 22:01:27 10° 17° (NNE) 1,735 5.6 -21.9°
Sets 22:03:37 0° 13° (NNE) 2,626 6.8 -22.1°
